Grand Marais, MN

11:46 PM CST on November 18, 2019 (GMT -0600)
Grand Marais

Weather History for KGNA - October, 2019

Change the Weather History Date:

Monday, October 21, 2019

  Actual Average (KCKC) Record (KCKC)
Temperature  
Mean Temperature 48 °F -  
Max Temperature 52 °F 43 °F 60 °F (2017)
Min Temperature 45 °F 30 °F 21 °F (2005)
Degree Days  
Heating Degree Days 16    
Moisture  
Dew Point 44 °F    
Average Humidity 85    
Maximum Humidity 96    
Minimum Humidity 69    
Precipitation  
Precipitation 1.03 in - - ()
Sea Level Pressure  
Sea Level Pressure 29.59 in    
Wind  
Wind Speed 14 mph (NE)    
Max Wind Speed 26 mph    
Max Gust Speed 47 mph    
Averages and records for this station are not official NWS values.
T = Trace of Precipitation, MM = Missing Value Source: NWS Daily Summary

Daily Weather History Graph

Daily Weather History Graph

Search for Another Location

Airport or City:

Astronomy

Oct. 21, 2019 Rise Set
Actual Time 7:28 AM CDT 6:02 PM CDT
Civil Twilight 6:57 AM CDT 6:33 PM CDT
Nautical Twilight 6:21 AM CDT 7:09 PM CDT
Astronomical Twilight 5:45 AM CDT 7:45 PM CDT
Moon No Moon Rise 3:02 PM CDT (10/21)
Length of Visible Light 11h 36m
Length of Day
10h 33m
Waning Gibbous, 48% of the Moon is Illuminated
Oct 21
Waning Gibbous
Oct 27
New
Nov 4
First Quarter
Nov 12
Full
Nov 19
Last Quarter

Hourly Weather History & Observations

Time (CDT) Temp. Windchill Dew Point Humidity Pressure Visibility Wind Dir Wind Speed Gust Speed Precip Events Conditions
12:56 AM 45.0 °F 40.6 °F 41.0 °F 86% 29.96 in - ENE 8.1 mph - N/A   Unknown
1:56 AM 45.0 °F 41.8 °F 42.1 °F 90% 29.95 in - ENE 5.8 mph - N/A   Unknown
2:56 AM 46.9 °F - 43.0 °F 86% 29.93 in - NE 10.4 mph - N/A   Unknown
3:56 AM 48.9 °F - 41.0 °F 74% 29.89 in - NE 11.5 mph - N/A   Unknown
4:56 AM 48.0 °F - 41.0 °F 77% 29.90 in - ENE 13.8 mph 21.9 mph N/A   Unknown
5:56 AM 48.0 °F - 42.1 °F 80% 29.87 in - ENE 12.7 mph - N/A   Unknown
6:56 AM 48.0 °F - 42.1 °F 80% 29.86 in - ENE 11.5 mph 23.0 mph N/A   Unknown
8:56 AM 48.0 °F - 43.0 °F 83% 29.81 in - ENE 17.3 mph 27.6 mph N/A   Unknown
9:56 AM 48.9 °F - 43.0 °F 80% 29.78 in - NE 18.4 mph 32.2 mph N/A   Unknown
10:56 AM 50.0 °F - 42.1 °F 74% 29.75 in - ENE 19.6 mph 34.5 mph N/A   Unknown
11:56 AM 50.0 °F - 42.1 °F 74% 29.69 in - NE 25.3 mph 39.1 mph N/A   Unknown
12:56 PM 52.0 °F - 42.1 °F 69% 29.61 in - NE 23.0 mph 33.4 mph N/A   Unknown
1:56 PM 50.0 °F - 43.0 °F 77% 29.54 in - NE 21.9 mph 36.8 mph N/A   Unknown
2:56 PM 48.0 °F - 45.0 °F 89% 29.49 in - NE 26.5 mph 47.2 mph 0.09 in   Unknown
3:56 PM 48.0 °F - 45.0 °F 89% 29.43 in - NE 24.2 mph 47.2 mph 0.20 in   Unknown
4:56 PM 48.9 °F - 46.0 °F 90% 29.36 in - NE 25.3 mph 46.0 mph 0.33 in   Unknown
5:56 PM 48.9 °F - 46.0 °F 90% 29.32 in - NE 26.5 mph 46.0 mph 0.20 in   Unknown
6:56 PM 50.0 °F - 46.9 °F 89% 29.29 in - NE 19.6 mph 43.7 mph 0.16 in   Unknown
7:56 PM 50.0 °F - 48.0 °F 93% 29.26 in - ENE 18.4 mph 33.4 mph 0.05 in   Unknown
8:56 PM 50.0 °F - 48.0 °F 93% 29.25 in - ENE 13.8 mph 25.3 mph N/A   Unknown
9:56 PM 50.0 °F - 48.9 °F 96% 29.24 in - ENE 8.1 mph 24.2 mph N/A   Unknown
10:56 PM 51.1 °F - 48.9 °F 92% 29.22 in - NE 6.9 mph - N/A   Unknown
11:56 PM 50.0 °F - 48.0 °F 93% 29.22 in - NE 5.8 mph - N/A   Unknown